OBJECT AH

基本信息
目录编号:
63241
目录名称:
OBJECT AH
国际标识:
2025-052AH
轨道中心:
EARTH
物体状态:
在轨
发射日期:
2025-03-15 UTC
国别:
(TBD)
轨道信息
数据来源: 国际轨道数据
星历时间: 2026-09-05T11:35:11+0800
半长轴: 6856.509km
偏心率: 0.0004981
轨道倾角: 97.372°
近地点辐角: 223.496°
升交点赤经: 140.870°
平近点角: 136.589°
近地点: 474.956km
远地点: 481.788km
周期: 94.170分钟
每日圈数: 15.291435
详细信息
发射场:
AFWTR
轨道高度:
LEO
数据来源:
AOE Integration Group
参考系:
TEME
时间系统:
UTC
历元类型:
SGP4
2D轨道图
3D轨道图
轨道高度分析图
轨道倾角分析图
轨道综合分析图
查看轨道综合分析图